TimeCDT,TemperatureF,Dew PointF,Humidity,Sea Level PressureIn,VisibilityMPH,Wind Direction,Wind SpeedMPH,Gust SpeedMPH,PrecipitationIn,Events,Conditions,WindDirDegrees,DateUTC
12:56 AM,50.9,50.9,100,29.95,3.0,SSE,6.9,-,0.02,Rain,Light Rain,160,2013-03-31 05:56:00
1:56 AM,50.9,50.9,100,29.93,7.0,South,8.1,-,0.00,Rain,Light Rain,170,2013-03-31 06:56:00
2:12 AM,51.8,51.8,100,29.90,6.0,South,4.6,-,0.00,,Overcast,180,2013-03-31 07:12:00
2:41 AM,51.8,51.8,100,29.88,10.0,Variable,5.8,-,0.00,,Overcast,0,2013-03-31 07:41:00
2:56 AM,52.0,52.0,100,29.90,10.0,SSW,6.9,-,0.00,,Overcast,210,2013-03-31 07:56:00
3:06 AM,53.6,53.6,100,29.88,10.0,SW,8.1,-,N/A,,Overcast,220,2013-03-31 08:06:00
3:45 AM,53.6,53.6,100,29.87,10.0,SW,9.2,-,N/A,,Overcast,230,2013-03-31 08:45:00
3:56 AM,54.0,54.0,100,29.88,5.0,SW,10.4,-,N/A,,Overcast,230,2013-03-31 08:56:00
4:56 AM,54.0,54.0,100,29.87,4.0,WSW,9.2,-,0.00,,Overcast,240,2013-03-31 09:56:00
5:08 AM,53.6,53.6,100,29.86,6.0,WSW,10.4,-,N/A,,Overcast,240,2013-03-31 10:08:00
5:17 AM,53.6,53.6,100,29.86,5.0,SW,8.1,-,0.00,,Overcast,220,2013-03-31 10:17:00
5:56 AM,52.9,52.9,100,29.89,10.0,WSW,11.5,-,0.00,,Overcast,250,2013-03-31 10:56:00
6:15 AM,53.6,51.8,94,29.88,10.0,West,10.4,-,N/A,,Overcast,260,2013-03-31 11:15:00
6:56 AM,52.9,50.9,93,29.91,10.0,West,9.2,18.4,N/A,,Overcast,260,2013-03-31 11:56:00
7:31 AM,51.8,51.8,100,29.91,7.0,West,11.5,-,0.00,Rain,Light Rain,270,2013-03-31 12:31:00
7:45 AM,51.8,50.0,94,29.91,10.0,West,10.4,-,0.00,,Overcast,270,2013-03-31 12:45:00
7:56 AM,52.0,50.0,93,29.94,10.0,West,12.7,-,0.00,,Mostly Cloudy,260,2013-03-31 12:56:00
8:20 AM,53.6,50.0,88,29.91,10.0,West,9.2,-,N/A,,Mostly Cloudy,260,2013-03-31 13:20:00
8:56 AM,54.0,50.9,89,29.94,10.0,West,8.1,-,N/A,,Mostly Cloudy,260,2013-03-31 13:56:00
9:16 AM,53.6,50.0,88,29.92,10.0,WSW,12.7,-,N/A,,Mostly Cloudy,250,2013-03-31 14:16:00
9:56 AM,54.0,50.0,86,29.93,10.0,WSW,9.2,-,N/A,,Mostly Cloudy,250,2013-03-31 14:56:00
10:15 AM,53.6,50.0,88,29.92,10.0,West,10.4,-,N/A,,Mostly Cloudy,280,2013-03-31 15:15:00
10:56 AM,54.9,50.0,84,29.94,10.0,West,9.2,-,N/A,,Overcast,260,2013-03-31 15:56:00
11:37 AM,55.4,50.0,82,29.93,10.0,West,12.7,-,N/A,,Overcast,280,2013-03-31 16:37:00
11:56 AM,55.9,50.0,80,29.95,10.0,WNW,11.5,-,N/A,,Overcast,300,2013-03-31 16:56:00
12:56 PM,55.9,50.0,80,29.95,10.0,NW,13.8,-,N/A,,Overcast,310,2013-03-31 17:56:00
1:56 PM,54.9,48.9,80,29.95,10.0,WNW,10.4,-,N/A,,Overcast,290,2013-03-31 18:56:00
2:56 PM,55.9,48.9,77,29.91,10.0,WSW,6.9,-,N/A,,Scattered Clouds,250,2013-03-31 19:56:00
3:56 PM,54.9,50.0,84,29.90,9.0,West,5.8,-,0.00,Rain,Light Rain,260,2013-03-31 20:56:00
4:05 PM,55.4,50.0,82,29.88,10.0,WSW,5.8,-,0.00,Rain,Light Rain,250,2013-03-31 21:05:00
4:22 PM,55.4,50.0,82,29.88,10.0,SW,6.9,-,0.00,,Scattered Clouds,230,2013-03-31 21:22:00
4:56 PM,54.9,50.9,86,29.90,10.0,SW,8.1,-,0.00,,Scattered Clouds,220,2013-03-31 21:56:00
5:56 PM,54.9,50.0,84,29.91,10.0,WSW,5.8,-,N/A,,Scattered Clouds,250,2013-03-31 22:56:00
6:56 PM,52.0,50.0,93,29.91,10.0,SW,4.6,-,N/A,,Partly Cloudy,230,2013-03-31 23:56:00
7:56 PM,43.9,43.9,100,29.94,6.0,Calm,Calm,-,N/A,,Partly Cloudy,0,2013-04-01 00:56:00
8:30 PM,42.8,42.8,100,29.92,2.0,Calm,Calm,-,N/A,,Clear,0,2013-04-01 01:30:00
8:36 PM,42.8,42.8,100,29.92,1.2,Calm,Calm,-,N/A,,Clear,0,2013-04-01 01:36:00
8:39 PM,41.0,41.0,100,29.92,0.8,Calm,Calm,-,N/A,,Clear,0,2013-04-01 01:39:00
8:56 PM,39.9,39.9,100,29.95,0.8,Calm,Calm,-,N/A,,Clear,0,2013-04-01 01:56:00
8:58 PM,39.2,39.2,100,29.93,1.2,Calm,Calm,-,N/A,,Clear,0,2013-04-01 01:58:00
9:04 PM,39.2,39.2,100,29.93,0.8,Calm,Calm,-,N/A,,Clear,0,2013-04-01 02:04:00
9:06 PM,41.0,41.0,100,29.93,0.2,Calm,Calm,-,N/A,Fog,Fog,0,2013-04-01 02:06:00
9:16 PM,39.2,39.2,100,29.92,0.2,Calm,Calm,-,N/A,Fog,Fog,0,2013-04-01 02:16:00
9:35 PM,37.4,37.4,100,29.92,0.2,Calm,Calm,-,N/A,Fog,Fog,0,2013-04-01 02:35:00
9:43 PM,37.4,37.4,100,29.93,0.2,Calm,Calm,-,N/A,Fog,Fog,0,2013-04-01 02:43:00
9:56 PM,37.9,37.9,100,29.95,0.2,Calm,Calm,-,N/A,Fog,Fog,0,2013-04-01 02:56:00
10:39 PM,35.6,35.6,100,29.93,0.2,Calm,Calm,-,N/A,Fog,Fog,0,2013-04-01 03:39:00
10:48 PM,35.6,35.6,100,29.93,0.2,Calm,Calm,-,N/A,Fog,Fog,0,2013-04-01 03:48:00
10:56 PM,34.9,34.9,100,29.95,0.2,Calm,Calm,-,N/A,Fog,Fog,0,2013-04-01 03:56:00
11:05 PM,35.6,35.6,100,29.93,0.2,Calm,Calm,-,N/A,Fog,Fog,0,2013-04-01 04:05:00
11:15 PM,35.6,35.6,100,29.92,0.2,Calm,Calm,-,N/A,Fog,Fog,0,2013-04-01 04:15:00
11:24 PM,35.6,35.6,100,29.92,0.2,Calm,Calm,-,N/A,Fog,Fog,0,2013-04-01 04:24:00
11:56 PM,36.0,36.0,100,29.95,0.2,Calm,Calm,-,N/A,Fog,Fog,0,2013-04-01 04:56:00